World > North America > United States > Ohio   City of Cleveland, OH
Hourly Weather in Cleveland, OhioCleveland, Ohio Hourly Weather

Cleveland, OH Hourly Weather

Hourly Weather Cleveland, OhioHourly Weather in Cleveland, OH
Lat: 41.48N, Lon: 81.68W  ICAO: KBKL
Web Search
Cleveland Weather Warning NWS WEATHER ALERT FOR THE CLEVELAND, OH AREA - SHORTTERM FORECAST Issued: 333 PM EDT Wed Sep 22 2021 Cleveland Weather Warning  

Helpful Tip: Abbreviated, 7 Day, 14 Day Forecasts. There is a weather forecast for every taste.

Feedback

Cleveland Hourly Weather

36 Hour Weather Scroll   °F Click to change Cleveland hourly weather to Imperial units.Click to change Cleveland hourly weather to Metric units. °C
Currently, Rain, temperature is 65°F18°C, dew point 63°F17°C, humidity 93%. Wind direction is N at 29 mph47 km/h with visibility of 2.00 mi3 km. Barometric pressure is 29.68 in1005 mb.

Sep 22
3:00 PM

Sep 22
4:00 PM

Sep 22
5:00 PM

Sep 22
6:00 PM

Sep 22
7:00 PM

Sep 22
8:00 PM

Sep 22
9:00 PM

Sep 22
10:00 PM

Sep 22
11:00 PM

Sep 23
MIDNIGHT

Sep 23
1:00 AM

Sep 23
2:00 AM

Sep 23
3:00 AM

Sep 23
4:00 AM

Sep 23
5:00 AM

Sep 23
6:00 AM

Sep 23
7:00 AM

Sep 23
8:00 AM

Sep 23
9:00 AM

Sep 23
10:00 AM

Sep 23
11:00 AM

Sep 23
NOON

Sep 23
1:00 PM

Sep 23
2:00 PM

Sep 23
3:00 PM

Sep 23
4:00 PM

Sep 23
5:00 PM

Sep 23
6:00 PM

Sep 23
7:00 PM

Sep 23
8:00 PM

Sep 23
9:00 PM

Sep 23
10:00 PM

Sep 23
11:00 PM

Sep 24
MIDNIGHT

Sep 24
1:00 AM

Sep 24
2:00 AM
Cloudy Cloudy Cloudy Cloudy Cloudy Cloudy Cloudy Cloudy Cloudy Cloudy Cloudy Cloudy Cloudy Cloudy Cloudy Cloudy Cloudy Cloudy Cloudy Cloudy Cloudy Cloudy Cloudy Cloudy Cloudy Cloudy Cloudy Cloudy Cloudy Cloudy Cloudy Cloudy Cloudy Cloudy Cloudy Cloudy
Cloudy Cloudy Cloudy Cloudy Cloudy Cloudy Cloudy Cloudy Cloudy Cloudy Cloudy Cloudy Cloudy Cloudy Cloudy Cloudy Cloudy Cloudy Cloudy Cloudy Cloudy Cloudy Cloudy Cloudy Cloudy Cloudy Cloudy Cloudy Cloudy Cloudy Cloudy Cloudy Cloudy Cloudy Cloudy Cloudy
68°F20°C 66°F19°C 65°F18°C 64°F18°C 63°F17°C 62°F17°C 61°F16°C 61°F16°C 60°F16°C 60°F16°C 59°F15°C 59°F15°C 59°F15°C 58°F14°C 58°F14°C 57°F14°C 55°F13°C 54°F12°C 55°F13°C 55°F13°C 56°F13°C 58°F14°C 59°F15°C 61°F16°C 60°F16°C 59°F15°C 58°F14°C 57°F14°C 57°F14°C 56°F13°C 56°F13°C 55°F13°C 55°F13°C 55°F13°C 55°F13°C 55°F13°C
Rain Rain Rain Rain Rain Rain Rain Rain Rain Rain Rain Rain Rain Rain Rain Rain Rain Rain Rain Rain Rain Rain Rain Rain Rain Rain Rain Rain Rain Rain Rain Rain Rain Rain Rain Rain
98% 98% 98% 98% 98% 98% 79% 79% 79% 79% 79% 79% 51% 51% 51% 51% 51% 51% 54% 54% 54% 54% 54% 54% 47% 47% 47% 47% 47% 47% 43% 43% 43% 43% 43% 43%
64°F18°C 63°F17°C 62°F17°C 61°F16°C 61°F16°C 60°F16°C 59°F15°C 58°F14°C 57°F14°C 56°F13°C 56°F13°C 55°F13°C 54°F12°C 53°F12°C 52°F11°C 51°F11°C 51°F11°C 50°F10°C 49°F9°C 49°F9°C 48°F9°C 48°F9°C 47°F8°C 47°F8°C 47°F8°C 47°F8°C 47°F8°C 47°F8°C 47°F8°C 47°F8°C 47°F8°C 46°F8°C 46°F8°C 46°F8°C 46°F8°C 46°F8°C
87% 90% 90% 90% 93% 93% 93% 90% 90% 87% 90% 87% 83% 83% 80% 80% 86% 86% 80% 80% 74% 69% 64% 60% 62% 64% 67% 69% 69% 72% 72% 72% 72% 72% 72% 72%
N N N N N N NW SW S S S S S S S S S S S SSE SSE SW SW SW SW SW SSW SSW SW SW SW SW SW SW SW SW
16 mph 23 mph 23 mph 23 mph 24 mph 24 mph 24 mph 21 mph 21 mph 21 mph 15 mph 15 mph 15 mph 21 mph 21 mph 21 mph 22 mph 22 mph 22 mph 22 mph 22 mph 22 mph 24 mph 24 mph 24 mph 23 mph 23 mph 23 mph 22 mph 22 mph 22 mph 19 mph 19 mph 19 mph 21 mph 21 mph
5 mi8 km 3 mi5 km 3 mi5 km 3 mi5 km 3 mi5 km 3 mi5 km 3 mi5 km 5 mi8 km 5 mi8 km 5 mi8 km 6 mi10 km 6 mi10 km 6 mi10 km 10 mi16 km 10 mi16 km 10 mi16 km 10 mi16 km 10 mi16 km 10 mi16 km 10 mi16 km 10 mi16 km 10 mi16 km 10 mi16 km 10 mi16 km 10 mi16 km 6 mi10 km 6 mi10 km 6 mi10 km 10 mi16 km 10 mi16 km 10 mi16 km 10 mi16 km 10 mi16 km 10 mi16 km 10 mi16 km 10 mi16 km
Hour (EDT)
Weather
Clouds
Temperature
Precip. Type
POP
Dewpoint
Humidity
Wind Direction
Wind Speed
Visibility
POP = Probability of Precipitation. ** Indicates missing data/values from model statistics.

24 Hour Forecast

Today - Showers with a chance of thunderstorms. Locally heavy rainfall possible. Near steady temperature in the mid 60s. East winds 10 to 15 mph with gusts up to 25 mph. Chance of rain near 100%.
Tonight - Showers with a chance of thunderstorms in the evening, then a chance of showers after midnight. Cooler with lows in the lower 50s. East winds 10 to 15 mph, becoming south after midnight. Gusts up to 30 mph. Chance of rain near 100%.

48 Hour Forecast API Feed


Wed, Sep 22
3:00 pm

Wed, Sep 22
4:00 pm

Wed, Sep 22
5:00 pm

Wed, Sep 22
6:00 pm

Wed, Sep 22
7:00 pm

Wed, Sep 22
8:00 pm

Wed, Sep 22
9:00 pm

Wed, Sep 22
10:00 pm

Wed, Sep 22
11:00 pm

Thu, Sep 23
Midnight

Thu, Sep 23
1:00 am

Thu, Sep 23
2:00 am

Thu, Sep 23
3:00 am

Thu, Sep 23
4:00 am

Thu, Sep 23
5:00 am

Thu, Sep 23
6:00 am

Thu, Sep 23
7:00 am

Thu, Sep 23
8:00 am

Thu, Sep 23
9:00 am

Thu, Sep 23
10:00 am

Thu, Sep 23
11:00 am

Thu, Sep 23
Noon

Thu, Sep 23
1:00 pm

Thu, Sep 23
2:00 pm

Thu, Sep 23
3:00 pm

Thu, Sep 23
4:00 pm

Thu, Sep 23
5:00 pm

Thu, Sep 23
6:00 pm

Thu, Sep 23
7:00 pm

Thu, Sep 23
8:00 pm

Thu, Sep 23
9:00 pm

Thu, Sep 23
10:00 pm

Thu, Sep 23
11:00 pm

Fri, Sep 24
Midnight

Fri, Sep 24
1:00 am

Fri, Sep 24
2:00 am

Fri, Sep 24
3:00 am

Fri, Sep 24
4:00 am

Fri, Sep 24
5:00 am

Fri, Sep 24
6:00 am

Fri, Sep 24
7:00 am

Fri, Sep 24
8:00 am

Fri, Sep 24
9:00 am

Fri, Sep 24
10:00 am

Fri, Sep 24
11:00 am

Fri, Sep 24
Noon

Fri, Sep 24
1:00 pm

Fri, Sep 24
2:00 pm
Light RainLight Rain ShowerHeavy RainModerate RainModerate RainHeavy RainLight DrizzleOvercastLight RainOvercastLight DrizzleCloudyCloudyOvercastOvercastOvercastOvercastOvercastOvercastOvercastOvercastOvercastOvercastOvercastPatchy Rain PossibleOvercastLight DrizzleOvercastPatchy Rain PossibleOvercastPatchy Rain PossibleOvercastPatchy Rain PossibleOvercastOvercastOvercastOvercastOvercastPatchy Rain PossibleOvercastOvercastLight Rain ShowerLight DrizzleLight Rain ShowerPatchy Light DrizzlePatchy Rain PossiblePatchy Rain PossibleModerate Rain At Times
Light rain Light rain showers Heavy rain Moderate rain Moderate rain Heavy rain Light drizzle Overcast Light rain Overcast Light drizzle Cloudy Cloudy Overcast Overcast Overcast Overcast Overcast Overcast Overcast Overcast Overcast Overcast Overcast Patchy rain possible Overcast Light drizzle Overcast Patchy rain possible Overcast Patchy rain possible Overcast Patchy rain possible Overcast Overcast Overcast Overcast Overcast Patchy rain possible Overcast Overcast Light rain showers Light drizzle Light rain showers Patchy light drizzle Patchy rain possible Patchy rain possible Moderate rain at times
67°F
20°C
67°F
19°C
65°F
19°C
64°F
18°C
62°F
17°C
61°F
16°C
62°F
17°C
58°F
15°C
57°F
14°C
56°F
13°C
56°F
13°C
55°F
13°C
55°F
13°C
54°F
12°C
53°F
12°C
53°F
12°C
53°F
11°C
52°F
11°C
52°F
11°C
52°F
11°C
52°F
11°C
52°F
11°C
52°F
11°C
52°F
11°C
53°F
12°C
53°F
12°C
53°F
12°C
53°F
12°C
53°F
12°C
53°F
12°C
53°F
12°C
54°F
12°C
53°F
12°C
53°F
12°C
53°F
12°C
52°F
11°C
52°F
11°C
53°F
12°C
53°F
12°C
52°F
11°C
52°F
11°C
53°F
12°C
54°F
12°C
55°F
13°C
58°F
15°C
61°F
16°C
64°F
18°C
69°F
21°C
66°F
19°C
66°F
19°C
65°F
18°C
63°F
17°C
61°F
16°C
60°F
15°C
61°F
16°C
56°F
13°C
53°F
12°C
51°F
11°C
50°F
10°C
48°F
9°C
48°F
9°C
48°F
9°C
47°F
9°C
47°F
8°C
47°F
8°C
47°F
9°C
47°F
8°C
47°F
8°C
47°F
9°C
47°F
9°C
47°F
9°C
47°F
9°C
47°F
9°C
48°F
9°C
48°F
9°C
48°F
9°C
48°F
9°C
47°F
9°C
47°F
9°C
48°F
9°C
48°F
9°C
47°F
9°C
48°F
9°C
47°F
9°C
48°F
9°C
48°F
9°C
48°F
9°C
48°F
9°C
48°F
9°C
49°F
9°C
50°F
10°C
51°F
10°C
51°F
10°C
50°F
10°C
50°F
10°C
51°F
11°C
29.68 in
1005 mb
29.62 in
1003 mb
29.65 in
1004 mb
29.65 in
1004 mb
29.68 in
1005 mb
29.68 in
1005 mb
29.68 in
1005 mb
29.71 in
1006 mb
29.71 in
1006 mb
29.71 in
1006 mb
29.71 in
1006 mb
29.68 in
1005 mb
29.68 in
1005 mb
29.68 in
1005 mb
29.68 in
1005 mb
29.68 in
1005 mb
29.71 in
1006 mb
29.71 in
1006 mb
29.74 in
1007 mb
29.77 in
1008 mb
29.77 in
1008 mb
29.8 in
1009 mb
29.83 in
1010 mb
29.83 in
1010 mb
29.83 in
1010 mb
29.83 in
1010 mb
29.85 in
1011 mb
29.85 in
1011 mb
29.85 in
1011 mb
29.88 in
1012 mb
29.88 in
1012 mb
29.88 in
1012 mb
29.91 in
1013 mb
29.91 in
1013 mb
29.91 in
1013 mb
29.91 in
1013 mb
29.94 in
1014 mb
29.94 in
1014 mb
29.94 in
1014 mb
29.97 in
1015 mb
29.97 in
1015 mb
30 in
1016 mb
30.03 in
1017 mb
30.03 in
1017 mb
30.06 in
1018 mb
30.06 in
1018 mb
30.06 in
1018 mb
30.06 in
1018 mb
95%98%97%96%95%95%95%92%88%84%79%76%76%80%79%80%82%84%83%82%83%83%83%84%82%81%81%81%82%82%81%80%81%83%83%85%85%84%84%85%87%86%86%84%76%67%60%53%
NNENENNNENNENEESSESSESSESSESSESSESSESSSSSSSWSSWSSWSSWSSWSSWSSWSSWSSWSSWSSWSSWSWSWSWSWSWSWSWSWSWSWWSWWSWWSWWWWW
15 mph
23 km/h
17 mph
27 km/h
20 mph
33 km/h
24 mph
38 km/h
19 mph
31 km/h
20 mph
32 km/h
12 mph
19 km/h
16 mph
26 km/h
17 mph
28 km/h
18 mph
29 km/h
20 mph
32 km/h
21 mph
34 km/h
22 mph
35 km/h
22 mph
36 km/h
24 mph
38 km/h
24 mph
39 km/h
24 mph
38 km/h
23 mph
37 km/h
23 mph
36 km/h
21 mph
34 km/h
21 mph
33 km/h
20 mph
32 km/h
19 mph
31 km/h
18 mph
30 km/h
18 mph
28 km/h
17 mph
27 km/h
16 mph
26 km/h
15 mph
24 km/h
15 mph
25 km/h
16 mph
26 km/h
16 mph
26 km/h
17 mph
27 km/h
17 mph
27 km/h
16 mph
25 km/h
15 mph
25 km/h
15 mph
24 km/h
16 mph
26 km/h
16 mph
26 km/h
16 mph
25 km/h
15 mph
25 km/h
15 mph
24 km/h
15 mph
24 km/h
16 mph
26 km/h
17 mph
27 km/h
16 mph
26 km/h
15 mph
25 km/h
14 mph
23 km/h
15 mph
24 km/h
96%92%72%74%94%94%87%0%55%0%73%0%0%0%0%0%0%0%0%0%0%0%0%0%77%0%54%0%75%0%88%0%65%0%0%0%0%0%77%0%0%80%81%59%68%57%74%60%
6 mi
9 km
6 mi
10 km
3 mi
5 km
4 mi
7 km
4 mi
7 km
3 mi
5 km
1 mi
2 km
6 mi
10 km
6 mi
9 km
6 mi
10 km
1 mi
2 km
6 mi
10 km
6 mi
10 km
6 mi
10 km
6 mi
10 km
6 mi
10 km
6 mi
10 km
6 mi
10 km
6 mi
10 km
6 mi
10 km
6 mi
10 km
6 mi
10 km
6 mi
10 km
6 mi
10 km
6 mi
10 km
6 mi
10 km
1 mi
2 km
6 mi
10 km
6 mi
10 km
6 mi
10 km
6 mi
10 km
6 mi
10 km
6 mi
10 km
6 mi
10 km
6 mi
10 km
6 mi
10 km
6 mi
10 km
6 mi
10 km
6 mi
10 km
6 mi
10 km
6 mi
10 km
6 mi
10 km
1 mi
2 km
6 mi
10 km
3 mi
5 km
6 mi
10 km
6 mi
10 km
6 mi
10 km

Day/Time
Weather
Condition
Temperature
Dew Point
Pressure
Humidity
Wind Direction
Wind Speed
Prob Precip %
Visibility
Prob Precip % = Probability of Precipitation.